Location: Alston School (historical)
(35.5076°N, 89.8251°W)
Time: 02:05:59
(UTC+00:00)

BlueWalker 3 - Pass Details

Date: 09 December 2025
Orbit: 451 x 463 km, 53.2° (Epoch: 21 January)

Event Time Altitude Azimuth Distance (km) Brightness Sun altitude
Rises 23:33:45 0° 317° (NW) 2,504 5.8 -9.6°
Reaches altitude 10° 23:35:56 10° 322° (NW) 1,626 4.7 -10.0°
Maximum altitude 23:39:33 58° 42° (NE) 551 1.8 -10.7°
Drops below altitude 10° 23:43:09 10° 122° (ESE) 1,618 4.2 -11.4°
Enters shadow 23:44:23 - 125° (SE) 2,111 4.8 -11.6°
